QPF
0.00 0.00 0.00 0.00 0.00 0.00 0.00 0.00 0.00 0.00 0.00 0.00 0.00 0.00 0.00 0.00 0.00 0.00 0.00 0.00 0.00 0.00 0.00 0.00 0.00 0.00 0.00 0.00 0.00 0.00 0.00 0.00 0.00 0.00 0.00 0.00 0.00 0.00 0.00 0.00 0.00 0.00 0.00 0.00 0.00
0.00 0.00 0.00 0.00 0.00 0.00 0.00 0.00 0.00 0.00 0.00 0.00 0.00 0.00 0.00 0.00 0.00 0.00 0.00 0.00 0.00 0.00 0.00 0.00 0.00 0.00 0.00 0.00 0.00 0.00 0.00 0.00 0.00 0.00 0.00 0.00 0.00 0.00 0.00 0.00 0.00 0.00 0.00 0.00 0.00
0.00 0.00 0.00 0.00 0.00 0.00 0.00 0.00 0.00 0.00 0.00 0.00 0.00 0.00 0.00 0.00 0.00 0.00 0.00 0.00 0.00 0.00 0.00 0.00 0.00 0.00 0.00 0.00 0.00 0.00 0.00 0.00 0.00 0.00 0.00 0.00 0.00 0.00 0.00 0.00 0.00 0.00 0.00 0.00 0.00
0.00 0.00 0.00 0.00 0.00 0.00 0.00 0.00 0.00 0.00 0.00 0.00 0.00 0.00 0.00 0.00 0.00 0.00 0.00 0.00 0.00 0.00 0.00 0.00 0.00 0.00 0.00 0.00 0.00 0.00 0.00 0.00 0.00 0.00 0.00 0.00 0.00 0.00 0.00 0.00 0.00 0.00 0.00 0.00 0.00
0.00 0.00 0.00 0.00 0.00 0.00 0.00 0.00 0.00 0.00 0.00 0.00 0.00 0.00 0.00 0.00 0.00 0.00 0.00 0.00 0.00 0.00 0.00 0.00 0.00 0.00 0.00 0.00 0.00 0.00 0.00 0.00 0.00 0.00 0.00 0.00 0.00 0.00 0.00 0.00 0.00 0.00 0.00 0.00 0.00
0.00 0.00 0.00 0.00 0.00 0.00 0.00 0.00 0.00 0.00 0.00 0.00 0.00 0.00 0.00 0.00 0.00 0.00 0.00 0.00 0.00 0.00 0.00 0.00 0.00 0.00 0.00 0.00 0.00 0.00 0.00 0.00 0.00 0.00 0.00 0.00 0.00 0.00 0.00 0.00 0.00 0.00 0.00 0.00 0.00
0.00 0.00 0.00 0.00 0.00 0.00 0.00 0.00 0.00 0.00 0.00 0.00 0.00 0.00 0.00 0.00 0.00 0.00 0.00 0.00 0.00 0.00 0.00 0.00 0.00 0.00 0.00 0.00 0.00 0.00 0.00 0.00 0.00 0.00 0.00 0.00 0.00 0.00 0.00 0.00 0.00 0.00 0.00 0.00 0.00
0.00 0.00 0.00 0.00 0.00 0.00 0.00 0.00 0.00 0.00 0.00 0.00 0.00 0.00 0.00 0.00 0.00 0.00 0.00 0.00 0.00 0.00 0.00 0.00 0.00 0.00 0.00 0.00 0.00 0.00 0.00 0.00 0.00 0.00 0.00 0.00 0.00 0.00 0.00 0.00 0.00 0.00 0.00 0.00 0.00
0.00 0.00 0.00 0.00 0.00 0.00 0.00 0.00 0.00 0.00 0.00 0.00 0.00 0.00 0.00 0.00 0.00 0.00 0.00 0.00 0.00 0.00 0.00 0.00 0.00 0.00 0.00 0.00 0.00 0.00 0.00 0.00 0.00 0.00 0.00 0.00 0.00 0.00 0.00 0.00 0.00 0.00 0.00 0.00 0.00
0.00 0.00 0.00 0.00 0.00 0.00 0.00 0.00 0.00 0.00 0.00 0.00 0.00 0.00 0.00 0.00 0.00 0.00 0.00 0.00 0.00 0.00 0.00 0.00 0.00 0.00 0.00 0.00 0.00 0.00 0.00 0.00 0.00 0.00 0.00 0.00 0.00 0.00 0.00 0.00 0.00 0.00 0.00 0.00 0.00
0.00 0.00 0.00 0.00 0.00 0.00 0.00 0.00 0.00 0.00 0.00 0.00 0.00 0.00 0.00 0.00 0.00 0.00 0.00 0.00 0.00 0.00 0.00 0.00 0.00 0.00 0.00 0.00 0.00 0.00 0.00 0.00 0.00 0.00 0.00 0.00 0.00 0.00 0.00 0.00 0.00 0.00 0.00 0.00 0.00
0.00 0.00 0.00 0.00 0.00 0.00 0.00 0.00 0.00 0.00 0.00 0.00 0.00 0.00 0.00 0.00 0.00 0.00 0.00 0.00 0.00 0.00 0.00 0.00 0.00 0.00 0.00 0.00 0.00 0.00 0.00 0.00 0.00 0.00 0.00 0.00 0.00 0.00 0.00 0.00 0.00 0.00 0.00 0.00 0.00
0.00 0.00 0.00 0.00 0.00 0.00 0.00 0.00 0.00 0.00 0.00 0.00 0.00 0.00 0.00 0.00 0.00 0.00 0.00 0.00 0.00 0.00 0.00 0.00 0.00 0.00 0.00 0.00 0.00 0.00 0.00 0.00 0.00 0.00 0.00 0.00 0.00 0.00 0.00 0.00 0.00 0.00 0.00 0.00 0.00
0.00 0.00 0.00 0.00 0.00 0.00 0.00 0.00 0.00 0.00 0.00 0.00 0.00 0.00 0.00 0.00 0.00 0.00 0.00 0.00 0.00 0.00 0.00 0.00 0.00 0.00 0.00 0.00 0.00 0.00 0.00 0.00 0.00 0.00 0.00 0.00 0.00 0.00 0.00 0.00 0.00 0.00 0.00 0.00 0.00
0.00 0.00 0.00 0.00 0.00 0.00 0.00 0.00 0.00 0.00 0.00 0.00 0.00 0.00 0.00 0.00 0.00 0.00 0.00 0.00 0.00 0.00 0.00 0.00 0.00 0.00 0.00 0.00 0.00 0.00 0.00 0.00 0.00 0.00 0.00 0.00 0.00 0.00 0.00 0.00 0.00 0.00 0.00 0.00 0.00
0.00 0.00 0.00 0.00 0.00 0.00 0.00 0.00 0.00 0.00 0.00 0.00 0.00 0.00 0.00 0.00 0.00 0.00 0.00 0.00 0.00 0.00 0.00 0.00 0.00 0.00 0.00 0.00 0.00 0.00 0.00 0.00 0.00 0.00 0.00 0.00 0.00 0.00 0.00 0.00 0.00 0.00 0.00 0.00 0.00
0.00 0.00 0.00 0.00 0.00 0.00 0.00 0.00 0.00 0.00 0.00 0.00 0.00 0.00 0.00 0.00 0.00 0.00 0.00 0.00 0.00 0.00 0.00 0.00 0.00 0.00 0.00 0.00 0.00 0.00 0.00 0.00 0.00 0.00 0.00 0.00 0.00 0.00 0.00 0.00 0.00 0.00 0.00 0.00 0.00
0.00 0.00 0.00 0.00 0.00 0.00 0.00 0.00 0.00 0.00 0.00 0.00 0.00 0.00 0.00 0.00 0.00 0.00 0.00 0.00 0.00 0.00 0.00 0.00 0.00 0.00 0.00 0.00 0.00 0.00 0.00 0.00 0.00 0.00 0.00 0.00 0.00 0.00 0.00 0.00 0.00 0.00 0.00 0.00 0.00
0.00 0.00 0.00 0.00 0.00 0.00 0.00 0.00 0.00 0.00 0.00 0.00 0.00 0.00 0.00 0.00 0.00 0.00 0.00 0.00 0.00 0.00 0.00 0.00 0.00 0.00 0.00 0.00 0.00 0.00 0.00 0.00 0.00 0.00 0.00 0.00 0.00 0.00 0.00 0.00 0.00 0.00 0.00 0.00 0.00
0.00 0.00 0.00 0.00 0.00 0.00 0.00 0.00 0.00 0.00 0.00 0.00 0.00 0.00 0.00 0.00 0.00 0.00 0.00 0.00 0.00 0.00 0.00 0.00 0.00 0.00 0.00 0.00 0.00 0.00 0.00 0.00 0.00 0.00 0.00 0.00 0.00 0.00 0.00 0.00 0.00 0.00 0.00 0.00 0.00
0.00 0.00 0.00 0.00 0.00 0.00 0.00 0.00 0.00 0.00 0.00 0.00 0.00 0.00 0.00 0.00 0.00 0.00 0.00 0.00 0.00 0.00 0.00 0.00 0.00 0.00 0.00 0.00 0.00 0.00 0.00 0.00 0.00 0.00 0.00 0.00 0.00 0.00 0.00 0.00 0.00 0.00 0.00 0.00 0.00
0.00 0.00 0.00 0.00 0.00 0.00 0.00 0.00 0.00 0.00 0.00 0.00 0.00 0.00 0.00 0.00 0.00 0.00 0.00 0.00 0.00 0.00 0.00 0.00 0.00 0.00 0.00 0.00 0.00 0.00 0.00 0.00 0.00 0.00 0.00 0.00 0.00 0.00 0.00 0.00 0.00 0.00 0.00 0.00 0.00
0.00 0.00 0.00 0.00 0.00 0.00 0.00 0.00 0.00 0.00 0.00 0.00 0.00 0.00 0.00 0.00 0.00 0.00 0.00 0.00 0.00 0.00 0.00 0.00 0.00 0.00 0.00 0.00 0.00 0.00 0.00 0.00 0.00 0.00 0.00 0.00 0.00 0.00 0.00 0.00 0.00 0.00 0.00 0.00 0.00
0.00 0.00 0.00 0.00 0.00 0.00 0.00 0.00 0.00 0.00 0.00 0.00 0.00 0.00 0.00 0.00 0.00 0.00 0.00 0.00 0.00 0.00 0.00 0.00 0.00 0.00 0.00 0.00 0.00 0.00 0.00 0.00 0.00 0.00 0.00 0.00 0.00 0.00 0.00 0.00 0.00 0.00 0.00 0.00 0.00
0.00 0.00 0.00 0.00 0.00 0.00 0.00 0.00 0.00 0.00 0.00 0.00 0.00 0.00 0.00 0.00 0.00 0.00 0.00 0.00 0.00 0.00 0.00 0.00 0.00 0.00 0.00 0.00 0.00 0.00 0.00 0.00 0.00 0.00 0.00 0.00 0.00 0.00 0.00 0.00 0.00 0.00 0.00 0.00 0.00
0.00 0.00 0.00 0.00 0.00 0.00 0.00 0.00 0.00 0.00 0.00 0.00 0.00 0.00 0.00 0.00 0.00 0.00 0.00 0.00 0.00 0.00 0.00 0.00 0.00 0.00 0.00 0.00 0.00 0.00 0.00 0.00 0.00 0.00 0.00 0.00 0.00 0.00 0.00 0.00 0.00 0.00 0.00 0.00 0.00
0.00 0.00 0.00 0.00 0.00 0.00 0.00 0.00 0.00 0.00 0.00 0.00 0.00 0.00 0.00 0.00 0.00 0.00 0.00 0.00 0.00 0.00 0.00 0.00 0.00 0.00 0.00 0.00 0.00 0.00 0.00 0.00 0.00 0.00 0.00 0.00 0.00 0.00 0.00 0.00 0.00 0.00 0.00 0.00 0.00
MSLP
1019.99 1019.81 1019.62 1019.44 1019.28 1019.06 1018.84 1018.62 1018.42 1018.22 1018.08 1017.91 1017.70 1017.42 1017.09 1016.68 1016.06 1015.93 1016.10 1016.05 1015.92 1015.69 1015.71 1015.45 1015.15 1015.38 1015.69 1016.36 1016.85 1017.60 1019.42 1020.46 1020.73 1020.78 1020.91 1021.20 1021.78 1022.77 1023.57 1024.08 1024.94 1025.52 1025.82 1025.85 1026.56
1020.26 1020.02 1019.79 1019.56 1019.32 1019.06 1018.81 1018.55 1018.32 1018.08 1017.90 1017.76 1017.63 1017.40 1017.10 1016.75 1016.32 1016.16 1015.91 1015.83 1015.77 1015.60 1015.74 1015.69 1015.59 1015.75 1016.26 1016.82 1017.45 1018.45 1019.99 1020.36 1020.53 1020.55 1020.83 1021.24 1021.74 1022.81 1023.80 1024.68 1025.67 1026.03 1026.23 1026.30 1026.89
1020.36 1020.18 1019.97 1019.75 1019.46 1019.20 1018.94 1018.68 1018.36 1018.08 1017.84 1017.66 1017.46 1017.22 1017.05 1016.92 1016.59 1016.18 1015.74 1015.74 1015.73 1015.71 1015.62 1015.65 1015.74 1016.02 1016.62 1017.21 1018.08 1019.02 1020.02 1020.21 1020.42 1020.36 1020.63 1021.31 1022.04 1022.63 1023.68 1024.68 1025.26 1025.94 1026.53 1026.89 1027.31
1020.51 1020.29 1020.02 1019.79 1019.56 1019.28 1019.02 1018.69 1018.38 1018.15 1017.97 1017.82 1017.56 1017.16 1016.85 1016.74 1016.85 1015.98 1015.70 1015.72 1015.72 1015.70 1015.67 1015.56 1015.67 1016.18 1017.17 1017.96 1018.47 1019.56 1020.16 1020.24 1020.40 1020.55 1020.84 1021.39 1021.93 1022.82 1023.63 1023.85 1024.04 1025.36 1025.99 1026.85 1027.42
1020.56 1020.36 1020.14 1019.88 1019.59 1019.27 1018.88 1018.62 1018.35 1018.13 1017.98 1017.83 1017.58 1017.17 1016.84 1016.80 1016.39 1015.68 1015.61 1015.64 1015.61 1015.66 1015.70 1015.80 1016.06 1016.57 1017.56 1018.33 1018.98 1019.75 1020.31 1020.49 1020.59 1020.69 1020.98 1021.45 1022.11 1022.80 1023.69 1024.04 1024.48 1025.57 1026.30 1026.85 1027.39
1020.56 1020.40 1020.17 1019.96 1019.63 1019.24 1018.87 1018.52 1018.21 1017.92 1017.72 1017.53 1017.23 1017.14 1016.90 1016.73 1016.03 1015.81 1015.62 1015.56 1015.62 1015.66 1015.85 1015.99 1016.37 1016.84 1017.95 1018.72 1019.34 1020.05 1020.52 1020.78 1020.85 1020.99 1021.18 1021.67 1022.34 1022.86 1024.03 1024.54 1025.27 1025.93 1026.54 1026.98 1027.23
1020.61 1020.38 1020.15 1019.92 1019.61 1019.28 1018.77 1018.42 1017.99 1017.75 1017.66 1017.47 1017.38 1017.11 1016.87 1016.68 1016.18 1015.98 1015.83 1015.90 1015.81 1015.71 1016.07 1016.28 1016.43 1017.08 1018.16 1019.13 1019.73 1020.38 1020.86 1021.10 1021.23 1021.29 1021.48 1021.81 1022.71 1022.87 1023.70 1024.68 1025.56 1026.19 1026.62 1027.03 1027.04
1020.65 1020.36 1020.14 1019.81 1019.44 1019.07 1018.59 1018.16 1017.78 1017.40 1017.26 1017.21 1017.16 1017.07 1016.93 1016.29 1016.27 1016.18 1016.06 1016.12 1015.99 1015.89 1016.12 1016.37 1016.61 1017.63 1018.63 1019.33 1020.04 1020.49 1020.87 1021.25 1021.03 1021.34 1021.79 1022.31 1022.40 1022.89 1023.83 1024.73 1025.66 1026.29 1026.54 1026.82 1026.88
1020.59 1020.31 1020.05 1019.65 1019.23 1018.76 1018.19 1017.70 1017.34 1017.17 1017.12 1017.17 1017.17 1016.93 1017.03 1016.43 1016.41 1016.36 1016.30 1016.48 1016.48 1016.45 1016.42 1016.45 1017.08 1018.58 1019.29 1019.97 1020.52 1020.69 1020.90 1021.05 1020.89 1021.08 1021.80 1022.63 1022.61 1022.95 1023.89 1024.63 1025.52 1026.00 1026.39 1026.50 1026.69
1020.46 1020.26 1019.85 1019.45 1019.09 1018.52 1017.84 1017.36 1017.08 1016.85 1017.06 1017.03 1017.00 1017.31 1017.19 1016.80 1016.58 1016.50 1016.44 1016.46 1016.71 1016.92 1017.18 1017.42 1018.41 1019.30 1020.14 1020.49 1020.62 1020.43 1020.51 1020.41 1020.65 1020.95 1021.62 1022.39 1022.47 1023.09 1023.76 1024.36 1024.79 1025.37 1025.90 1026.17 1026.23
1020.32 1020.02 1019.63 1019.19 1018.90 1018.49 1017.79 1017.23 1017.79 1017.53 1017.22 1017.03 1016.83 1016.84 1016.86 1016.90 1016.73 1016.85 1016.76 1016.84 1017.08 1017.42 1017.92 1018.32 1019.13 1019.73 1019.73 1019.80 1019.73 1019.81 1020.05 1020.19 1020.11 1020.47 1021.30 1021.59 1021.85 1022.29 1023.03 1023.94 1024.47 1024.85 1025.15 1025.49 1025.44
1020.06 1019.86 1019.47 1018.96 1018.47 1018.24 1018.28 1018.05 1018.03 1018.13 1017.63 1016.87 1016.78 1016.71 1016.69 1016.76 1017.09 1017.09 1017.07 1017.43 1017.64 1018.18 1018.41 1018.94 1019.24 1019.05 1019.04 1019.26 1019.44 1019.63 1019.95 1020.15 1020.22 1020.62 1021.31 1021.17 1020.81 1020.69 1021.44 1021.91 1022.61 1023.31 1024.03 1024.35 1024.71
1020.10 1019.90 1019.44 1018.76 1018.19 1017.93 1017.95 1018.02 1017.63 1017.67 1017.92 1017.24 1016.81 1016.74 1016.77 1016.88 1017.23 1017.33 1017.46 1017.63 1017.98 1018.44 1018.82 1019.33 1019.34 1019.11 1019.27 1019.42 1019.56 1019.78 1020.10 1020.35 1020.83 1020.81 1021.05 1021.34 1020.47 1019.92 1020.28 1020.90 1021.75 1022.37 1022.80 1023.29 1023.52
1020.14 1019.88 1019.39 1018.61 1018.19 1018.41 1018.11 1017.64 1017.46 1017.57 1018.12 1017.64 1017.02 1016.76 1016.77 1016.82 1017.47 1017.51 1017.51 1017.78 1018.05 1018.54 1018.87 1019.33 1019.37 1019.49 1019.67 1019.96 1020.25 1020.45 1020.54 1020.80 1021.16 1021.62 1021.72 1021.59 1021.40 1019.66 1019.84 1020.36 1020.89 1021.40 1021.95 1022.30 1022.70
1020.26 1019.98 1019.48 1018.87 1018.61 1018.35 1018.08 1017.63 1017.42 1017.80 1018.24 1017.79 1017.12 1016.79 1016.92 1017.44 1017.90 1017.88 1017.79 1017.86 1018.19 1018.56 1019.22 1019.55 1019.66 1019.74 1019.93 1020.10 1020.29 1020.79 1021.01 1021.32 1021.61 1022.15 1022.51 1021.92 1022.12 1019.07 1019.37 1019.59 1019.61 1020.07 1020.71 1021.14 1021.54
1020.28 1020.10 1019.76 1019.00 1018.84 1018.14 1017.84 1017.62 1017.85 1018.39 1017.77 1017.43 1017.15 1017.23 1017.55 1017.73 1018.03 1018.20 1018.25 1018.25 1018.59 1018.90 1019.36 1019.85 1020.00 1020.16 1020.22 1020.56 1020.77 1020.98 1021.34 1021.95 1022.64 1022.89 1023.11 1021.93 1021.98 1019.34 1018.72 1018.02 1018.01 1018.44 1019.39 1019.86 1020.62
1020.19 1020.01 1019.98 1019.34 1018.54 1017.90 1017.77 1018.06 1018.66 1018.31 1017.56 1017.57 1017.35 1017.57 1017.72 1018.03 1018.30 1018.51 1018.79 1019.02 1019.30 1019.69 1019.97 1020.14 1020.32 1020.53 1020.68 1020.90 1021.12 1021.62 1022.34 1022.72 1023.34 1023.67 1022.96 1021.76 1021.58 1018.54 1017.23 1017.07 1017.28 1017.64 1018.22 1018.87 1019.74
1020.01 1019.81 1019.23 1018.62 1018.09 1017.97 1018.02 1018.54 1018.45 1017.46 1017.07 1016.86 1017.04 1017.44 1018.03 1018.04 1018.27 1018.61 1019.08 1019.36 1019.20 1019.67 1020.29 1020.71 1020.81 1020.96 1021.13 1021.40 1021.66 1022.04 1022.63 1023.42 1023.86 1024.19 1023.20 1021.91 1020.37 1017.17 1016.60 1016.55 1016.81 1016.96 1017.37 1018.22 1019.13
1019.59 1019.44 1019.16 1017.77 1017.77 1018.27 1018.48 1018.78 1017.64 1017.08 1016.44 1016.68 1017.07 1017.59 1017.82 1017.74 1018.17 1018.65 1018.96 1019.21 1019.14 1019.50 1020.20 1020.69 1020.90 1021.21 1021.46 1021.78 1022.15 1022.49 1023.02 1023.51 1024.05 1024.46 1024.15 1021.63 1019.43 1016.88 1016.11 1016.14 1016.34 1016.86 1017.55 1018.16 1018.72
1020.02 1019.53 1018.71 1017.62 1017.90 1018.38 1018.82 1018.39 1017.33 1016.10 1015.87 1016.23 1016.78 1016.93 1017.50 1017.88 1018.26 1018.79 1018.91 1018.50 1018.65 1018.87 1019.14 1020.05 1020.82 1021.46 1021.83 1022.06 1022.49 1022.69 1023.21 1023.70 1024.62 1025.21 1024.69 1022.01 1020.00 1017.73 1016.51 1016.27 1016.32 1016.81 1017.27 1017.71 1018.31
1020.28 1019.54 1018.38 1017.88 1018.12 1018.77 1019.18 1018.31 1017.00 1016.02 1015.72 1016.10 1016.44 1016.98 1017.26 1017.57 1018.01 1018.51 1018.44 1018.30 1018.35 1018.91 1019.10 1019.83 1020.82 1021.92 1022.13 1022.13 1022.27 1023.03 1023.37 1024.02 1024.76 1025.36 1025.18 1023.48 1019.68 1016.60 1016.03 1015.80 1016.04 1016.29 1016.69 1016.96 1017.59
1020.13 1019.75 1018.55 1018.39 1019.19 1019.24 1018.93 1017.56 1016.44 1016.17 1015.95 1016.02 1016.43 1016.73 1016.88 1017.19 1017.96 1018.33 1018.31 1018.38 1018.51 1018.72 1019.34 1019.83 1020.86 1021.73 1021.78 1021.82 1022.13 1022.26 1022.65 1023.50 1024.98 1025.52 1025.27 1024.09 1019.18 1016.33 1015.82 1015.62 1015.74 1015.97 1016.31 1016.59 1016.80
1020.21 1019.79 1018.82 1018.73 1019.80 1019.74 1018.55 1017.40 1016.46 1016.35 1016.13 1016.32 1016.40 1016.63 1016.64 1017.20 1017.77 1017.87 1018.16 1018.63 1018.70 1019.09 1019.38 1019.94 1021.02 1021.81 1021.63 1022.09 1022.29 1022.30 1022.29 1022.81 1023.96 1024.58 1024.46 1023.66 1018.95 1016.23 1015.68 1015.48 1015.49 1015.85 1015.86 1015.95 1016.03
1020.41 1020.34 1019.89 1019.83 1020.02 1019.56 1018.73 1017.82 1017.02 1016.09 1016.05 1016.16 1016.35 1016.58 1016.84 1017.06 1017.14 1017.67 1018.34 1018.82 1019.12 1019.38 1019.74 1020.01 1020.85 1021.13 1020.99 1020.66 1020.72 1021.54 1021.62 1022.24 1023.12 1023.96 1022.99 1021.11 1018.44 1016.57 1015.58 1015.79 1015.34 1015.43 1015.38 1015.52 1015.60
1020.34 1019.66 1018.95 1019.90 1019.79 1019.40 1018.87 1018.07 1017.31 1016.86 1016.56 1016.38 1016.57 1016.64 1016.93 1017.36 1017.49 1017.82 1018.23 1018.99 1019.54 1019.73 1020.10 1020.55 1021.15 1021.16 1020.62 1020.27 1020.25 1020.18 1020.42 1021.16 1021.92 1021.31 1021.20 1018.50 1018.11 1015.96 1015.24 1015.29 1015.27 1015.29 1015.19 1015.22 1015.03
1019.95 1019.51 1019.36 1018.96 1018.98 1018.96 1018.84 1017.84 1017.33 1016.84 1016.81 1016.63 1016.59 1016.50 1016.62 1017.02 1016.98 1017.36 1017.96 1018.92 1019.18 1020.19 1020.62 1021.03 1021.11 1021.16 1020.71 1019.85 1019.79 1019.41 1019.23 1019.36 1019.69 1019.54 1018.96 1017.85 1016.50 1014.46 1014.50 1014.81 1015.01 1015.36 1015.24 1015.09 1014.79
1019.19 1018.76 1018.43 1018.75 1018.76 1019.11 1017.84 1016.77 1016.63 1016.58 1016.28 1016.09 1016.24 1016.62 1016.76 1016.47 1016.74 1016.97 1017.31 1017.67 1017.99 1019.11 1020.59 1021.42 1021.76 1021.96 1021.13 1020.21 1019.64 1018.64 1017.22 1017.38 1017.39 1017.10 1016.73 1016.48 1014.24 1013.71 1014.08 1014.35 1014.58 1014.81 1014.97 1014.79 1014.55
Thickness
5714 5717 5718 5719 5721 5722 5724 5727 5729 5730 5731 5733 5735 5738 5741 5745 5749 5750 5740 5748 5751 5754 5754 5755 5756 5751 5748 5737 5736 5727 5689 5676 5677 5679 5677 5680 5675 5671 5664 5657 5652 5645 5641 5640 5628
5713 5715 5717 5719 5721 5723 5725 5728 5730 5733 5734 5736 5737 5739 5741 5744 5746 5741 5751 5753 5754 5756 5753 5748 5743 5745 5731 5731 5724 5706 5681 5686 5687 5686 5679 5680 5679 5668 5659 5651 5643 5640 5635 5632 5624
5713 5714 5716 5718 5721 5723 5725 5727 5730 5732 5735 5737 5739 5741 5743 5744 5737 5737 5752 5754 5755 5755 5756 5753 5749 5741 5729 5728 5719 5706 5686 5693 5689 5691 5688 5680 5674 5674 5655 5651 5644 5639 5632 5628 5623
5712 5713 5715 5717 5719 5722 5724 5728 5731 5732 5734 5735 5738 5742 5744 5744 5712 5745 5752 5753 5754 5756 5755 5751 5747 5735 5719 5714 5719 5697 5696 5694 5692 5690 5688 5681 5680 5668 5662 5664 5661 5646 5638 5629 5623
5713 5713 5714 5716 5719 5722 5725 5728 5730 5732 5733 5735 5737 5741 5743 5730 5731 5751 5752 5754 5755 5755 5749 5745 5738 5732 5716 5715 5712 5699 5695 5693 5692 5689 5686 5682 5677 5672 5665 5660 5654 5645 5640 5634 5623
5715 5715 5715 5716 5719 5723 5725 5728 5731 5734 5736 5739 5741 5742 5739 5720 5748 5750 5752 5754 5753 5752 5746 5744 5738 5735 5719 5714 5709 5702 5695 5691 5692 5689 5688 5680 5676 5676 5663 5655 5650 5646 5639 5632 5628
5717 5718 5719 5720 5722 5723 5726 5729 5733 5735 5736 5738 5738 5740 5733 5726 5746 5749 5750 5749 5752 5752 5743 5746 5745 5734 5723 5711 5709 5698 5690 5689 5685 5686 5684 5683 5672 5672 5665 5656 5650 5645 5638 5634 5632
5719 5721 5722 5724 5726 5727 5729 5731 5734 5739 5740 5739 5739 5739 5723 5744 5745 5745 5747 5745 5750 5752 5748 5748 5745 5730 5720 5716 5707 5699 5690 5678 5688 5683 5683 5680 5670 5676 5664 5658 5650 5645 5639 5637 5636
5721 5723 5724 5726 5729 5732 5735 5737 5739 5740 5740 5738 5737 5735 5719 5742 5735 5742 5743 5736 5740 5743 5745 5747 5738 5717 5713 5696 5687 5690 5681 5681 5688 5686 5681 5675 5676 5679 5663 5663 5654 5645 5642 5639 5637
5724 5725 5727 5729 5731 5734 5739 5741 5741 5741 5739 5737 5736 5722 5725 5724 5734 5738 5743 5740 5732 5731 5726 5726 5711 5699 5692 5686 5677 5687 5686 5693 5688 5689 5682 5675 5671 5676 5667 5664 5664 5652 5646 5641 5639
5726 5728 5731 5733 5734 5736 5740 5741 5729 5725 5731 5726 5726 5723 5724 5732 5737 5731 5736 5731 5728 5720 5704 5711 5692 5687 5699 5698 5702 5701 5696 5693 5696 5697 5686 5678 5677 5681 5676 5665 5660 5654 5649 5646 5646
5729 5730 5733 5736 5739 5740 5738 5730 5728 5728 5719 5732 5731 5729 5732 5732 5718 5725 5733 5716 5713 5699 5706 5694 5690 5704 5710 5708 5703 5699 5693 5689 5695 5694 5686 5684 5686 5692 5685 5685 5681 5675 5664 5658 5655
5730 5731 5734 5739 5743 5743 5740 5735 5739 5737 5714 5724 5731 5726 5727 5729 5716 5716 5723 5716 5707 5699 5698 5684 5697 5706 5703 5699 5696 5692 5689 5688 5686 5689 5687 5681 5686 5701 5696 5692 5684 5679 5676 5670 5667
5730 5731 5735 5741 5741 5738 5736 5742 5742 5740 5694 5711 5719 5726 5729 5728 5713 5724 5724 5716 5708 5698 5698 5692 5698 5696 5693 5689 5687 5681 5688 5688 5684 5673 5667 5683 5668 5693 5699 5686 5685 5683 5673 5676 5668
5729 5731 5735 5738 5738 5736 5739 5742 5743 5734 5679 5714 5718 5737 5729 5715 5712 5714 5723 5715 5701 5700 5695 5689 5689 5689 5687 5688 5688 5681 5683 5681 5680 5668 5663 5672 5659 5691 5696 5697 5692 5688 5684 5682 5677
5726 5728 5731 5736 5736 5740 5742 5742 5735 5699 5689 5710 5719 5713 5710 5713 5710 5711 5710 5714 5708 5699 5693 5687 5691 5687 5686 5684 5683 5683 5680 5667 5657 5652 5649 5673 5665 5688 5695 5708 5714 5703 5694 5693 5682
5724 5726 5727 5731 5734 5741 5741 5732 5699 5687 5721 5707 5708 5709 5707 5702 5703 5702 5697 5691 5682 5678 5676 5682 5681 5682 5683 5677 5678 5669 5654 5644 5657 5644 5654 5671 5664 5688 5711 5712 5714 5714 5702 5696 5686
5722 5725 5730 5734 5737 5738 5733 5714 5696 5713 5709 5722 5717 5710 5697 5702 5702 5698 5691 5682 5691 5688 5665 5665 5665 5673 5676 5672 5669 5665 5654 5635 5656 5640 5646 5660 5657 5697 5711 5709 5708 5711 5708 5697 5687
5721 5723 5726 5737 5737 5732 5718 5692 5700 5711 5724 5715 5715 5702 5699 5707 5701 5697 5688 5681 5690 5684 5671 5662 5669 5670 5670 5666 5664 5660 5647 5650 5638 5630 5630 5650 5674 5703 5710 5707 5708 5705 5701 5694 5687
5712 5716 5722 5732 5732 5724 5706 5698 5711 5732 5729 5722 5702 5706 5694 5696 5696 5689 5686 5698 5697 5693 5693 5680 5663 5665 5664 5664 5657 5656 5651 5641 5621 5626 5637 5643 5657 5674 5702 5698 5697 5696 5695 5693 5687
5704 5708 5718 5723 5723 5707 5691 5696 5717 5730 5732 5717 5705 5703 5702 5695 5690 5683 5691 5700 5698 5690 5692 5681 5666 5659 5658 5651 5649 5640 5639 5637 5626 5615 5611 5619 5652 5685 5700 5699 5693 5691 5692 5692 5688
5696 5695 5711 5712 5694 5687 5690 5705 5726 5721 5723 5718 5712 5707 5702 5699 5687 5684 5689 5693 5693 5687 5679 5678 5654 5649 5654 5657 5654 5652 5646 5636 5604 5631 5604 5575 5636 5691 5689 5691 5689 5691 5690 5687 5686
5687 5689 5701 5702 5679 5681 5696 5710 5720 5715 5713 5708 5706 5705 5707 5697 5689 5689 5689 5686 5688 5683 5674 5671 5650 5636 5648 5649 5646 5642 5643 5641 5622 5605 5615 5592 5641 5681 5682 5685 5686 5684 5685 5687 5685
5675 5673 5680 5681 5678 5683 5692 5698 5702 5715 5711 5710 5706 5705 5699 5693 5697 5688 5681 5679 5679 5678 5673 5669 5648 5646 5639 5655 5651 5644 5642 5635 5629 5581 5613 5621 5656 5678 5682 5669 5672 5675 5678 5679 5680
5665 5673 5682 5667 5673 5678 5682 5691 5692 5693 5700 5701 5698 5694 5690 5681 5681 5675 5678 5669 5670 5671 5666 5657 5646 5640 5646 5648 5649 5653 5653 5634 5625 5634 5630 5669 5637 5668 5674 5668 5667 5668 5671 5670 5674
5657 5663 5666 5670 5673 5673 5670 5681 5683 5688 5687 5689 5687 5688 5685 5678 5680 5677 5670 5663 5667 5657 5653 5646 5645 5646 5648 5653 5642 5647 5647 5646 5639 5644 5636 5649 5650 5678 5677 5667 5665 5659 5659 5660 5663
5648 5656 5663 5658 5661 5657 5667 5681 5679 5684 5691 5690 5687 5680 5676 5679 5681 5681 5677 5677 5675 5660 5644 5637 5633 5626 5623 5641 5633 5637 5658 5652 5652 5647 5655 5642 5674 5680 5670 5666 5661 5660 5655 5655 5656